Time [hr],Date,AE,AE1ch,AE2ch,Temperature,Humidity,Vaper Deficit,Illuminance,CO2,Pressure,SoilTemp,SoilWater,SolutionEC,Dielectricity,PoreEC,SoilEC,DC1ch,DC2ch,KUROA001008B,KUROA0010084,
0,2024/05/01 00:00,,,,20.27,82.63,17.59,0,741,0,,,,,,,,,
1,2024/05/01 01:00,,,,19.75,83.34,17.05,0,750,0,,,,,,,,,
2,2024/05/01 02:00,,,,19.34,84.01,16.65,0,762,0,,,,,,,,,
3,2024/05/01 03:00,,,,19.32,84.65,16.63,0,774,0,,,,,,,,,
4,2024/05/01 04:00,,,,19.54,85.31,16.85,0,791,0,,,,,,,,,
5,2024/05/01 05:00,,,,19.93,85.91,17.23,38,806,0,,,,,,,,,
6,2024/05/01 06:00,,,,20.39,86.87,17.71,258,813,0,,,,,,,,,
7,2024/05/01 07:00,,,,22.14,87.83,19.59,571,798,0,,,,,,,,,
8,2024/05/01 08:00,,,,23.98,86.81,21.76,907,764,0,,,,,,,,,
9,2024/05/01 09:00,,,,26.23,84.23,24.69,831,711,0,,,,,,,,,
10,2024/05/01 10:00,3,0,3,22.83,83.39,20.39,298,707,0,,,,,,,,,
11,2024/05/01 11:00,5,1,4,21.30,85.42,18.66,471,713,0,,,,,,,,,
12,2024/05/01 12:00,5,1,4,22.05,85.61,19.49,842,691,0,,,,,,,,,
13,2024/05/01 13:00,1,0,1,21.78,84.16,19.19,653,675,0,,,,,,,,,
14,2024/05/01 14:00,3,0,3,20.92,83.79,18.26,558,670,0,,,,,,,,,
15,2024/05/01 15:00,2,0,2,20.14,84.21,17.45,503,674,0,,,,,,,,,
16,2024/05/01 16:00,4,0,4,18.68,84.57,16.02,129,673,0,,,,,,,,,
17,2024/05/01 17:00,5,1,4,17.23,86.10,14.70,68,681,0,,,,,,,,,
18,2024/05/01 18:00,,,,16.71,86.92,14.24,6,691,0,,,,,,,,,
19,2024/05/01 19:00,,,,16.66,87.08,14.20,0,704,0,,,,,,,,,
20,2024/05/01 20:00,,,,16.23,87.22,13.84,0,710,0,,,,,,,,,
21,2024/05/01 21:00,,,,15.96,87.36,13.61,0,713,0,,,,,,,,,
22,2024/05/01 22:00,,,,15.72,87.48,13.42,0,717,0,,,,,,,,,
23,2024/05/01 23:00,,,,15.44,87.59,13.19,0,716,0,,,,,,,,,
24,2024/05/02 00:00,,,,15.24,87.74,13.03,0,715,0,,,,,,,,,
25,2024/05/02 01:00,,,,15.05,87.85,12.88,0,716,0,,,,,,,,,
26,2024/05/02 02:00,,,,14.85,88.01,12.73,0,716,0,,,,,,,,,
27,2024/05/02 03:00,,,,14.63,88.18,12.55,0,716,0,,,,,,,,,
28,2024/05/02 04:00,,,,14.38,88.34,12.36,0,713,0,,,,,,,,,
29,2024/05/02 05:00,,,,14.29,88.54,12.30,68,712,0,,,,,,,,,
30,2024/05/02 06:00,,,,15.21,88.87,13.01,781,713,0,,,,,,,,,
31,2024/05/02 07:00,,,,24.42,84.75,22.32,2789,669,0,,,,,,,,,
32,2024/05/02 08:00,2,1,1,30.90,59.67,31.88,4512,643,0,,,,,,,,,
33,2024/05/02 09:00,,,,30.51,41.87,31.21,4034,624,0,,,,,,,,,
34,2024/05/02 10:00,,,,29.88,39.61,30.17,3469,624,0,,,,,,,,,
35,2024/05/02 11:00,,,,27.88,37.82,27.06,2651,610,0,,,,,,,,,
36,2024/05/02 12:00,13,4,9,28.28,37.26,27.66,2808,609,0,,,,,,,,,
37,2024/05/02 13:00,16,14,2,28.48,34.42,27.96,3138,603,0,,,,,,,,,
38,2024/05/02 14:00,6,4,2,28.97,33.19,28.71,4651,601,0,,,,,,,,,
39,2024/05/02 15:00,,,,31.62,29.80,33.13,8070,593,0,,,,,,,,,
40,2024/05/02 16:00,,,,26.30,32.03,24.79,4825,602,0,,,,,,,,,
41,2024/05/02 17:00,3,3,0,22.00,42.64,19.44,965,621,0,,,,,,,,,
42,2024/05/02 18:00,1,1,0,20.46,55.62,17.78,56,641,0,,,,,,,,,
43,2024/05/02 19:00,,,,18.87,63.87,16.20,0,665,0,,,,,,,,,
44,2024/05/02 20:00,,,,17.44,67.68,14.87,0,684,0,,,,,,,,,
45,2024/05/02 21:00,,,,15.94,70.11,13.60,0,693,0,,,,,,,,,
46,2024/05/02 22:00,2,2,0,14.67,71.98,12.59,0,689,0,,,,,,,,,
47,2024/05/02 23:00,,,,13.84,73.81,11.96,0,693,0,,,,,,,,,
48,2024/05/03 00:00,,,,13.24,75.17,11.53,0,691,0,,,,,,,,,
49,2024/05/03 01:00,,,,12.92,76.66,11.30,0,699,0,,,,,,,,,
50,2024/05/03 02:00,,,,12.70,77.73,11.15,0,705,0,,,,,,,,,
51,2024/05/03 03:00,3,3,0,12.50,79.10,11.01,0,709,0,,,,,,,,,
52,2024/05/03 04:00,,,,12.41,80.26,10.95,6,717,0,,,,,,,,,
53,2024/05/03 05:00,,,,12.98,81.34,11.34,184,721,0,,,,,,,,,
54,2024/05/03 06:00,15,14,1,18.41,80.04,15.76,2030,723,0,,,,,,,,,
55,2024/05/03 07:00,2,1,1,27.79,66.44,26.91,3325,675,0,,,,,,,,,
56,2024/05/03 08:00,,,,31.95,47.08,33.73,4440,656,0,,,,,,,,,
57,2024/05/03 09:00,,,,32.47,40.96,34.67,4230,642,0,,,,,,,,,
58,2024/05/03 10:00,,,,32.22,36.74,34.21,3746,634,0,,,,,,,,,
59,2024/05/03 11:00,18,13,5,33.30,34.35,36.22,3888,622,0,,,,,,,,,
60,2024/05/03 12:00,14,6,8,32.44,31.01,34.60,3341,610,0,,,,,,,,,
61,2024/05/03 13:00,42,35,7,31.49,31.19,32.89,3530,608,0,,,,,,,,,
62,2024/05/03 14:00,11,11,0,33.45,28.74,36.50,7124,596,0,,,,,,,,,
63,2024/05/03 15:00,2,2,0,32.79,29.90,35.27,9129,601,0,,,,,,,,,
64,2024/05/03 16:00,1,1,0,27.17,37.54,26.02,5665,618,0,,,,,,,,,
65,2024/05/03 17:00,5,5,0,23.22,47.71,20.84,4952,623,0,,,,,,,,,
66,2024/05/03 18:00,,,,21.51,58.07,18.90,70,648,0,,,,,,,,,
67,2024/05/03 19:00,1,1,0,20.37,63.97,17.69,0,665,0,,,,,,,,,
68,2024/05/03 20:00,,,,19.20,67.50,16.51,0,678,0,,,,,,,,,
69,2024/05/03 21:00,,,,18.08,69.93,15.46,0,692,0,,,,,,,,,
70,2024/05/03 22:00,3,3,0,17.11,71.87,14.58,0,706,0,,,,,,,,,
71,2024/05/03 23:00,,,,16.36,73.47,13.95,0,718,0,,,,,,,,,
72,2024/05/04 00:00,1,1,0,15.88,74.94,13.55,0,725,0,,,,,,,,,
73,2024/05/04 01:00,,,,15.49,76.28,13.23,0,729,0,,,,,,,,,
74,2024/05/04 02:00,2,2,0,15.38,77.80,13.14,0,734,0,,,,,,,,,
75,2024/05/04 03:00,4,4,0,15.26,79.10,13.05,0,735,0,,,,,,,,,
76,2024/05/04 04:00,2,2,0,15.07,80.08,12.89,6,737,0,,,,,,,,,
77,2024/05/04 05:00,1,0,1,15.27,80.86,13.06,212,742,0,,,,,,,,,
78,2024/05/04 06:00,11,10,1,20.62,78.54,17.95,2070,729,0,,,,,,,,,
79,2024/05/04 07:00,4,3,1,28.46,60.84,27.92,3362,673,0,,,,,,,,,
80,2024/05/04 08:00,,,,31.94,44.01,33.69,4427,650,0,,,,,,,,,
81,2024/05/04 09:00,4,1,3,33.23,36.36,36.08,4269,641,0,,,,,,,,,
82,2024/05/04 10:00,6,4,2,35.50,31.77,40.63,3845,627,0,,,,,,,,,
83,2024/05/04 11:00,15,13,2,37.17,28.32,44.29,3973,609,0,,,,,,,,,
84,2024/05/04 12:00,12,7,5,37.15,24.83,44.25,3440,598,0,,,,,,,,,
85,2024/05/04 13:00,24,15,9,36.47,24.62,42.72,3666,596,0,,,,,,,,,
86,2024/05/04 14:00,3,3,0,37.72,24.15,45.55,7051,598,0,,,,,,,,,
87,2024/05/04 15:00,3,3,0,36.92,22.87,43.71,8927,585,0,,,,,,,,,
88,2024/05/04 16:00,1,1,0,30.82,25.46,31.75,5779,589,0,,,,,,,,,
89,2024/05/04 17:00,2,2,0,26.02,30.10,24.40,3660,601,0,,,,,,,,,
90,2024/05/04 18:00,,,,23.05,39.38,20.64,70,622,0,,,,,,,,,
91,2024/05/04 19:00,1,1,0,21.91,51.52,19.34,0,654,0,,,,,,,,,
92,2024/05/04 20:00,,,,20.64,59.84,17.97,0,679,0,,,,,,,,,
93,2024/05/04 21:00,2,2,0,19.54,64.03,16.84,0,690,0,,,,,,,,,
94,2024/05/04 22:00,,,,18.45,66.86,15.80,0,706,0,,,,,,,,,
95,2024/05/04 23:00,,,,17.73,69.18,15.14,0,723,0,,,,,,,,,
96,2024/05/05 00:00,,,,17.10,71.08,14.58,0,737,0,,,,,,,,,
97,2024/05/05 01:00,,,,16.35,72.32,13.94,0,744,0,,,,,,,,,
98,2024/05/05 02:00,,,,15.60,73.69,13.32,0,746,0,,,,,,,,,
99,2024/05/05 03:00,,,,15.08,74.74,12.91,0,747,0,,,,,,,,,
100,2024/05/05 04:00,,,,14.84,75.95,12.72,5,749,0,,,,,,,,,
101,2024/05/05 05:00,1,1,0,15.28,77.33,13.06,206,755,0,,,,,,,,,
102,2024/05/05 06:00,4,2,2,20.98,75.42,18.33,2019,744,0,,,,,,,,,
103,2024/05/05 07:00,1,1,0,28.92,56.26,28.64,3428,666,0,,,,,,,,,
104,2024/05/05 08:00,2,2,0,32.94,44.29,35.53,4469,648,0,,,,,,,,,
105,2024/05/05 09:00,2,0,2,35.29,35.96,40.19,4309,632,0,,,,,,,,,
106,2024/05/05 10:00,3,2,1,36.16,29.31,42.05,3848,605,0,,,,,,,,,
107,2024/05/05 11:00,8,6,2,36.19,28.19,42.12,3945,607,0,,,,,,,,,
108,2024/05/05 12:00,13,11,2,35.23,26.77,40.06,3388,595,0,,,,,,,,,
109,2024/05/05 13:00,14,10,4,33.47,27.01,36.54,3579,592,0,,,,,,,,,
110,2024/05/05 14:00,3,3,0,35.72,24.82,41.10,7184,582,0,,,,,,,,,
111,2024/05/05 15:00,4,4,0,35.15,24.34,39.89,8804,578,0,,,,,,,,,
112,2024/05/05 16:00,6,6,0,29.63,31.70,29.77,4124,594,0,,,,,,,,,
113,2024/05/05 17:00,2,2,0,25.67,40.45,23.93,5370,614,0,,,,,,,,,
114,2024/05/05 18:00,,,,23.06,48.77,20.66,70,624,0,,,,,,,,,
115,2024/05/05 19:00,,,,22.31,58.36,19.79,0,651,0,,,,,,,,,
116,2024/05/05 20:00,,,,21.44,64.25,18.81,0,672,0,,,,,,,,,
117,2024/05/05 21:00,,,,20.91,67.61,18.24,0,683,0,,,,,,,,,
118,2024/05/05 22:00,,,,20.46,69.67,17.78,0,688,0,,,,,,,,,
119,2024/05/05 23:00,,,,19.92,71.06,17.22,0,690,0,,,,,,,,,
120,2024/05/06 00:00,,,,19.47,72.51,16.77,0,687,0,,,,,,,,,
121,2024/05/06 01:00,,,,19.28,74.02,16.60,0,685,0,,,,,,,,,
122,2024/05/06 02:00,,,,18.98,75.33,16.30,0,690,0,,,,,,,,,
123,2024/05/06 03:00,,,,18.56,76.44,15.90,0,686,0,,,,,,,,,
124,2024/05/06 04:00,,,,18.25,77.51,15.62,12,689,0,,,,,,,,,
125,2024/05/06 05:00,,,,19.14,78.45,16.46,196,692,0,,,,,,,,,
126,2024/05/06 06:00,5,2,3,22.34,78.35,19.82,1147,674,0,,,,,,,,,
127,2024/05/06 07:00,1,0,1,27.31,67.54,26.22,1796,637,0,,,,,,,,,
128,2024/05/06 08:00,1,1,0,27.41,61.33,26.37,1712,627,0,,,,,,,,,
129,2024/05/06 09:00,,,,27.35,56.82,26.27,1481,615,0,,,,,,,,,
130,2024/05/06 10:00,1,0,1,26.59,60.56,25.19,1042,616,0,,,,,,,,,
131,2024/05/06 11:00,3,0,3,26.99,68.17,25.76,1123,626,0,,,,,,,,,
132,2024/05/06 12:00,4,1,3,26.86,68.16,25.58,1185,634,0,,,,,,,,,
133,2024/05/06 13:00,1,1,0,26.65,72.70,25.27,1014,646,0,,,,,,,,,
134,2024/05/06 14:00,1,0,1,26.25,74.72,24.72,706,646,0,,,,,,,,,
135,2024/05/06 15:00,,,,24.62,76.97,22.56,542,670,0,,,,,,,,,
136,2024/05/06 16:00,,,,24.42,78.34,22.31,442,681,0,,,,,,,,,
137,2024/05/06 17:00,2,1,1,23.37,79.03,21.02,199,675,0,,,,,,,,,
138,2024/05/06 18:00,,,,22.18,79.76,19.64,36,679,0,,,,,,,,,
139,2024/05/06 19:00,,,,21.54,79.90,18.93,0,686,0,,,,,,,,,
140,2024/05/06 20:00,,,,21.20,80.17,18.56,0,692,0,,,,,,,,,
141,2024/05/06 21:00,1,1,0,20.99,80.57,18.34,0,694,0,,,,,,,,,
142,2024/05/06 22:00,1,1,0,20.80,81.02,18.13,0,693,0,,,,,,,,,
143,2024/05/06 23:00,1,1,0,20.50,81.21,17.82,0,694,0,,,,,,,,,
144,2024/05/07 00:00,,,,20.07,81.66,17.38,0,694,0,,,,,,,,,
145,2024/05/07 01:00,,,,19.89,82.33,17.20,0,701,0,,,,,,,,,
146,2024/05/07 02:00,,,,19.90,83.07,17.21,0,703,0,,,,,,,,,
147,2024/05/07 03:00,,,,19.82,83.67,17.12,0,702,0,,,,,,,,,
148,2024/05/07 04:00,,,,19.71,84.17,17.02,1,703,0,,,,,,,,,
149,2024/05/07 05:00,,,,19.69,84.78,17.00,35,708,0,,,,,,,,,
150,2024/05/07 06:00,,,,19.86,85.69,17.17,185,705,0,,,,,,,,,
151,2024/05/07 07:00,,,,20.29,86.17,17.60,506,697,0,,,,,,,,,
152,2024/05/07 08:00,,,,21.84,86.06,19.26,730,672,0,,,,,,,,,
153,2024/05/07 09:00,2,1,1,24.78,84.93,22.77,1423,651,0,,,,,,,,,
154,2024/05/07 10:00,,,,27.47,80.82,26.45,1694,632,0,,,,,,,,,
155,2024/05/07 11:00,1,1,0,28.04,72.02,27.30,1913,627,0,,,,,,,,,
156,2024/05/07 12:00,15,6,9,28.13,66.61,27.43,2377,618,0,,,,,,,,,
157,2024/05/07 13:00,1,1,0,26.26,70.58,24.73,823,625,0,,,,,,,,,
158,2024/05/07 14:00,9,9,0,25.86,76.61,24.19,1055,629,0,,,,,,,,,
159,2024/05/07 15:00,6,5,1,25.93,78.10,24.28,703,629,0,,,,,,,,,
160,2024/05/07 16:00,6,3,3,24.01,80.87,21.81,219,660,0,,,,,,,,,
161,2024/05/07 17:00,12,10,2,23.59,83.25,21.29,310,689,0,,,,,,,,,
162,2024/05/07 18:00,6,2,4,22.64,84.02,20.17,12,707,0,,,,,,,,,
163,2024/05/07 19:00,1,1,0,21.89,84.23,19.32,0,711,0,,,,,,,,,
164,2024/05/07 20:00,3,0,3,21.32,84.45,18.69,0,724,0,,,,,,,,,
165,2024/05/07 21:00,3,1,2,20.94,84.88,18.28,0,739,0,,,,,,,,,
166,2024/05/07 22:00,2,2,0,20.66,85.24,17.99,0,747,0,,,,,,,,,
167,2024/05/07 23:00,1,0,1,20.47,85.60,17.79,0,757,0,,,,,,,,,
168,2024/05/08 00:00,1,1,0,20.28,85.99,17.59,0,766,0,,,,,,,,,
169,2024/05/08 01:00,1,0,1,19.94,86.30,17.25,0,776,0,,,,,,,,,
170,2024/05/08 02:00,1,1,0,19.40,86.47,16.71,0,782,0,,,,,,,,,
171,2024/05/08 03:00,1,0,1,18.74,86.73,16.07,0,785,0,,,,,,,,,
172,2024/05/08 04:00,4,2,2,18.25,87.08,15.61,4,793,0,,,,,,,,,
173,2024/05/08 05:00,9,5,4,18.45,87.41,15.80,91,794,0,,,,,,,,,
174,2024/05/08 06:00,18,17,1,21.43,88.08,18.81,1527,778,0,,,,,,,,,
175,2024/05/08 07:00,3,1,2,27.77,74.46,26.90,2365,661,0,,,,,,,,,
176,2024/05/08 08:00,25,19,6,28.39,63.25,27.83,2437,633,0,,,,,,,,,
177,2024/05/08 09:00,28,25,3,29.60,58.75,29.72,2931,632,0,,,,,,,,,
178,2024/05/08 10:00,14,13,1,31.35,50.84,32.65,3688,621,0,,,,,,,,,
179,2024/05/08 11:00,15,12,3,31.21,47.43,32.40,2745,616,0,,,,,,,,,
180,2024/05/08 12:00,44,44,0,32.62,44.55,34.93,3532,605,0,,,,,,,,,
181,2024/05/08 13:00,4,3,1,26.66,49.98,25.29,411,619,0,,,,,,,,,
182,2024/05/08 14:00,21,20,1,26.48,62.71,25.04,1474,629,0,,,,,,,,,
183,2024/05/08 15:00,5,4,1,27.25,59.54,26.14,1387,618,0,,,,,,,,,
184,2024/05/08 16:00,3,1,2,24.94,62.91,22.98,184,631,0,,,,,,,,,
185,2024/05/08 17:00,1,1,0,21.33,71.08,18.70,77,657,0,,,,,,,,,
186,2024/05/08 18:00,2,1,1,19.90,75.15,17.21,8,675,0,,,,,,,,,
187,2024/05/08 19:00,,,,19.48,76.39,16.79,0,680,0,,,,,,,,,
188,2024/05/08 20:00,,,,18.86,77.53,16.19,0,688,0,,,,,,,,,
189,2024/05/08 21:00,,,,18.08,78.55,15.46,0,691,0,,,,,,,,,
190,2024/05/08 22:00,1,0,1,17.46,79.45,14.89,0,693,0,,,,,,,,,
191,2024/05/08 23:00,,,,16.89,80.28,14.39,0,699,0,,,,,,,,,
192,2024/05/09 00:00,,,,16.30,81.09,13.90,0,705,0,,,,,,,,,
193,2024/05/09 01:00,1,0,1,15.89,81.82,13.56,0,709,0,,,,,,,,,
194,2024/05/09 02:00,,,,15.52,82.48,13.25,0,712,0,,,,,,,,,
195,2024/05/09 03:00,2,2,0,15.25,83.24,13.04,0,711,0,,,,,,,,,
196,2024/05/09 04:00,,,,14.94,83.87,12.80,0,709,0,,,,,,,,,
197,2024/05/09 05:00,,,,14.81,84.48,12.69,43,704,0,,,,,,,,,
198,2024/05/09 06:00,1,1,0,14.93,85.16,12.79,335,698,0,,,,,,,,,
199,2024/05/09 07:00,7,6,1,15.83,85.41,13.51,615,686,0,,,,,,,,,
200,2024/05/09 08:00,1,1,0,18.30,83.66,15.66,917,652,0,,,,,,,,,
201,2024/05/09 09:00,4,2,2,21.15,81.43,18.51,1782,621,0,,,,,,,,,
202,2024/05/09 10:00,16,15,1,27.81,69.53,26.95,2770,609,0,,,,,,,,,
203,2024/05/09 11:00,5,5,0,28.34,52.39,27.75,3202,605,0,,,,,,,,,
204,2024/05/09 12:00,10,10,0,28.30,43.12,27.68,3325,603,0,,,,,,,,,
205,2024/05/09 13:00,10,10,0,28.02,41.01,27.26,3470,597,0,,,,,,,,,
206,2024/05/09 14:00,2,2,0,29.27,37.51,29.19,5611,603,0,,,,,,,,,
207,2024/05/09 15:00,3,2,1,29.71,35.98,29.89,7358,595,0,,,,,,,,,
208,2024/05/09 16:00,3,3,0,25.42,41.24,23.60,1688,608,0,,,,,,,,,
209,2024/05/09 17:00,,,,22.66,53.45,20.19,203,624,0,,,,,,,,,
210,2024/05/09 18:00,3,3,0,20.73,64.18,18.06,46,656,0,,,,,,,,,
211,2024/05/09 19:00,1,1,0,19.26,69.35,16.57,0,677,0,,,,,,,,,
212,2024/05/09 20:00,,,,17.15,71.54,14.62,0,689,0,,,,,,,,,
213,2024/05/09 21:00,1,1,0,15.68,72.96,13.38,0,693,0,,,,,,,,,
214,2024/05/09 22:00,1,1,0,13.92,73.81,12.02,0,682,0,,,,,,,,,
215,2024/05/09 23:00,2,0,2,12.69,74.86,11.14,0,678,0,,,,,,,,,
216,2024/05/10 00:00,1,1,0,12.02,75.91,10.69,0,678,0,,,,,,,,,
217,2024/05/10 01:00,1,1,0,11.51,76.88,10.35,0,678,0,,,,,,,,,
218,2024/05/10 02:00,,,,11.08,77.84,10.08,0,683,0,,,,,,,,,
219,2024/05/10 03:00,1,1,0,10.77,78.76,9.88,0,681,0,,,,,,,,,
220,2024/05/10 04:00,3,0,3,10.18,79.37,9.52,10,680,0,,,,,,,,,
221,2024/05/10 05:00,1,1,0,11.19,80.29,10.14,235,688,0,,,,,,,,,
222,2024/05/10 06:00,30,26,4,17.81,78.02,15.21,2185,694,0,,,,,,,,,
223,2024/05/10 07:00,4,0,4,27.69,59.81,26.77,3424,640,0,,,,,,,,,
224,2024/05/10 08:00,1,1,0,31.97,39.53,33.75,4419,620,0,,,,,,,,,
225,2024/05/10 09:00,12,11,1,32.48,30.85,34.69,4147,617,0,,,,,,,,,
226,2024/05/10 10:00,20,20,0,32.14,25.26,34.06,3663,602,0,,,,,,,,,
227,2024/05/10 11:00,17,17,0,32.28,23.90,34.31,3813,595,0,,,,,,,,,
228,2024/05/10 12:00,20,19,1,30.52,23.81,31.24,3236,589,0,,,,,,,,,
229,2024/05/10 13:00,32,31,1,29.26,25.67,29.17,3405,591,0,,,,,,,,,
230,2024/05/10 14:00,20,20,0,31.82,25.13,33.48,7061,591,0,,,,,,,,,
231,2024/05/10 15:00,6,5,1,32.08,24.76,33.94,9661,583,0,,,,,,,,,
232,2024/05/10 16:00,7,7,0,27.19,30.58,26.04,5094,599,0,,,,,,,,,
233,2024/05/10 17:00,12,11,1,22.57,44.09,20.08,4120,615,0,,,,,,,,,
234,2024/05/10 18:00,3,2,1,19.18,68.95,16.49,64,656,0,,,,,,,,,
235,2024/05/10 19:00,1,1,0,18.70,77.61,16.03,0,682,0,,,,,,,,,
236,2024/05/10 20:00,3,3,0,17.98,81.10,15.36,0,699,0,,,,,,,,,
237,2024/05/10 21:00,4,4,0,17.13,81.96,14.60,0,716,0,,,,,,,,,
238,2024/05/10 22:00,2,2,0,16.70,82.39,14.23,0,722,0,,,,,,,,,
239,2024/05/10 23:00,,,,16.03,82.68,13.67,0,729,0,,,,,,,,,
240,2024/05/11 00:00,1,1,0,15.29,82.98,13.07,0,733,0,,,,,,,,,
241,2024/05/11 01:00,1,1,0,14.70,83.25,12.61,0,733,0,,,,,,,,,
242,2024/05/11 02:00,1,1,0,14.13,83.47,12.18,0,730,0,,,,,,,,,
243,2024/05/11 03:00,2,1,1,13.63,83.60,11.81,0,734,0,,,,,,,,,
244,2024/05/11 04:00,3,2,1,13.20,83.80,11.50,9,734,0,,,,,,,,,
245,2024/05/11 05:00,,,,14.06,84.39,12.12,216,743,0,,,,,,,,,
246,2024/05/11 06:00,6,6,0,19.41,82.31,16.72,1364,743,0,,,,,,,,,
247,2024/05/11 07:00,8,6,2,26.04,74.22,24.44,2371,693,0,,,,,,,,,
248,2024/05/11 08:00,17,15,2,31.24,52.36,32.47,4078,654,0,,,,,,,,,
249,2024/05/11 09:00,34,29,5,32.85,38.49,35.37,4067,620,0,,,,,,,,,
250,2024/05/11 10:00,37,29,8,32.55,33.37,34.81,3631,611,0,,,,,,,,,
251,2024/05/11 11:00,41,39,2,33.11,33.25,35.86,3833,605,0,,,,,,,,,
252,2024/05/11 12:00,52,51,1,31.86,32.81,33.56,3241,605,0,,,,,,,,,
253,2024/05/11 13:00,62,57,5,31.06,34.88,32.15,3424,605,0,,,,,,,,,
254,2024/05/11 14:00,34,32,2,33.35,32.93,36.31,7335,600,0,,,,,,,,,
255,2024/05/11 15:00,17,16,1,33.47,32.23,36.54,10269,598,0,,,,,,,,,
256,2024/05/11 16:00,21,18,3,28.44,37.44,27.90,4296,604,0,,,,,,,,,
257,2024/05/11 17:00,11,8,3,24.47,43.92,22.37,5400,621,0,,,,,,,,,
258,2024/05/11 18:00,12,10,2,22.47,52.92,19.97,89,632,0,,,,,,,,,
259,2024/05/11 19:00,5,4,1,21.51,60.59,18.89,0,657,0,,,,,,,,,
260,2024/05/11 20:00,3,3,0,20.52,65.04,17.84,0,669,0,,,,,,,,,
261,2024/05/11 21:00,7,7,0,19.93,68.24,17.24,0,671,0,,,,,,,,,
262,2024/05/11 22:00,11,9,2,19.46,70.81,16.77,0,678,0,,,,,,,,,
263,2024/05/11 23:00,8,8,0,19.06,72.79,16.38,0,680,0,,,,,,,,,
264,2024/05/12 00:00,7,6,1,18.68,74.35,16.02,0,682,0,,,,,,,,,
265,2024/05/12 01:00,4,3,1,18.14,75.58,15.51,0,684,0,,,,,,,,,
266,2024/05/12 02:00,16,14,2,17.69,76.60,15.10,0,688,0,,,,,,,,,
267,2024/05/12 03:00,8,7,1,17.37,77.52,14.82,0,692,0,,,,,,,,,
268,2024/05/12 04:00,8,8,0,17.02,78.60,14.50,14,699,0,,,,,,,,,
269,2024/05/12 05:00,9,8,1,18.27,79.55,15.63,264,699,0,,,,,,,,,
270,2024/05/12 06:00,19,13,6,24.51,74.22,22.43,1956,666,0,,,,,,,,,
271,2024/05/12 07:00,5,2,3,28.12,55.04,27.41,2352,616,0,,,,,,,,,
272,2024/05/12 08:00,14,13,1,29.23,47.89,29.13,3017,618,0,,,,,,,,,
273,2024/05/12 09:00,18,14,4,29.36,45.64,29.33,2798,614,0,,,,,,,,,
274,2024/05/12 10:00,12,11,1,27.77,49.27,26.89,2269,611,0,,,,,,,,,
275,2024/05/12 11:00,8,7,1,26.85,52.10,25.56,1241,612,0,,,,,,,,,
276,2024/05/12 12:00,7,6,1,27.20,53.15,26.06,1455,609,0,,,,,,,,,
277,2024/05/12 13:00,14,14,0,27.03,56.25,25.82,1470,617,0,,,,,,,,,
278,2024/05/12 14:00,14,14,0,27.79,53.05,26.92,1745,608,0,,,,,,,,,
279,2024/05/12 15:00,9,8,1,27.47,53.73,26.45,1671,611,0,,,,,,,,,
280,2024/05/12 16:00,9,8,1,26.29,52.81,24.78,997,615,0,,,,,,,,,
281,2024/05/12 17:00,12,10,2,24.28,59.47,22.13,294,629,0,,,,,,,,,
282,2024/05/12 18:00,9,8,1,23.05,66.11,20.64,26,644,0,,,,,,,,,
283,2024/05/12 19:00,5,4,1,22.38,69.94,19.86,0,661,0,,,,,,,,,
284,2024/05/12 20:00,5,5,0,21.73,72.93,19.14,0,681,0,,,,,,,,,
285,2024/05/12 21:00,7,7,0,21.42,75.05,18.80,0,683,0,,,,,,,,,
286,2024/05/12 22:00,4,4,0,21.16,76.30,18.52,0,690,0,,,,,,,,,
287,2024/05/12 23:00,4,3,1,20.93,77.31,18.27,0,693,0,,,,,,,,,
288,2024/05/13 00:00,1,0,1,20.64,78.28,17.97,0,694,0,,,,,,,,,
289,2024/05/13 01:00,3,3,0,20.50,79.41,17.82,0,702,0,,,,,,,,,
290,2024/05/13 02:00,5,4,1,20.31,80.17,17.62,0,706,0,,,,,,,,,
291,2024/05/13 03:00,1,0,1,19.97,81.03,17.28,0,713,0,,,,,,,,,
292,2024/05/13 04:00,7,7,0,20.01,82.05,17.31,2,715,0,,,,,,,,,
293,2024/05/13 05:00,8,7,1,20.63,83.07,17.95,34,700,0,,,,,,,,,
294,2024/05/13 06:00,10,7,3,21.61,85.55,19.01,397,683,0,,,,,,,,,
295,2024/05/13 07:00,7,6,1,22.76,86.63,20.30,481,671,0,,,,,,,,,
296,2024/05/13 08:00,13,12,1,25.72,85.40,24.00,1326,648,0,,,,,,,,,
297,2024/05/13 09:00,10,7,3,28.09,80.52,27.38,1702,633,0,,,,,,,,,
298,2024/05/13 10:00,7,7,0,28.07,76.97,27.33,1298,635,0,,,,,,,,,
299,2024/05/13 11:00,11,8,3,28.10,78.09,27.39,1306,638,0,,,,,,,,,
300,2024/05/13 12:00,3,2,1,28.31,78.66,27.71,1235,637,0,,,,,,,,,
301,2024/05/13 13:00,4,3,1,27.40,78.12,26.35,700,637,0,,,,,,,,,
302,2024/05/13 14:00,3,3,0,24.28,80.70,22.13,418,666,0,,,,,,,,,
303,2024/05/13 15:00,,,,22.59,82.44,20.11,321,673,0,,,,,,,,,
304,2024/05/13 16:00,3,3,0,21.10,83.01,18.45,238,676,0,,,,,,,,,
305,2024/05/13 17:00,3,3,0,20.13,83.81,17.44,116,683,0,,,,,,,,,
306,2024/05/13 18:00,5,3,2,19.71,84.60,17.02,16,694,0,,,,,,,,,
307,2024/05/13 19:00,5,4,1,19.67,84.75,16.98,0,711,0,,,,,,,,,
308,2024/05/13 20:00,4,4,0,19.27,84.84,16.59,0,717,0,,,,,,,,,
309,2024/05/13 21:00,,,,19.09,85.04,16.41,0,724,0,,,,,,,,,
310,2024/05/13 22:00,2,1,1,18.87,85.23,16.19,0,726,0,,,,,,,,,
311,2024/05/13 23:00,2,2,0,18.39,85.39,15.75,0,726,0,,,,,,,,,
312,2024/05/14 00:00,2,2,0,18.17,85.65,15.54,0,726,0,,,,,,,,,
313,2024/05/14 01:00,4,3,1,17.99,85.90,15.37,0,731,0,,,,,,,,,
314,2024/05/14 02:00,5,3,2,17.76,86.11,15.16,0,736,0,,,,,,,,,
315,2024/05/14 03:00,7,6,1,17.25,86.30,14.71,0,738,0,,,,,,,,,
316,2024/05/14 04:00,4,4,0,16.50,86.47,14.06,4,739,0,,,,,,,,,
317,2024/05/14 05:00,1,1,0,16.31,86.72,13.90,109,736,0,,,,,,,,,
318,2024/05/14 06:00,7,5,2,17.68,86.53,15.09,734,722,0,,,,,,,,,
319,2024/05/14 07:00,12,10,2,22.92,84.48,20.49,1786,687,0,,,,,,,,,
320,2024/05/14 08:00,16,11,5,28.10,67.87,27.39,2635,644,0,,,,,,,,,
321,2024/05/14 09:00,20,14,6,27.96,51.62,27.17,2638,629,0,,,,,,,,,
322,2024/05/14 10:00,27,22,5,30.00,43.70,30.37,3365,627,0,,,,,,,,,
323,2024/05/14 11:00,31,26,5,31.08,37.70,32.18,3761,625,0,,,,,,,,,
324,2024/05/14 12:00,25,21,4,31.47,33.31,32.87,3141,619,0,,,,,,,,,
325,2024/05/14 13:00,33,30,3,29.79,32.32,30.03,3169,613,0,,,,,,,,,
326,2024/05/14 14:00,20,16,4,33.01,29.40,35.66,6899,598,0,,,,,,,,,
327,2024/05/14 15:00,15,12,3,34.71,27.77,38.99,10407,594,0,,,,,,,,,
328,2024/05/14 16:00,5,5,0,29.23,30.32,29.12,5584,600,0,,,,,,,,,
329,2024/05/14 17:00,13,9,4,24.67,36.03,22.62,4992,615,0,,,,,,,,,
330,2024/05/14 18:00,3,2,1,21.43,47.53,18.81,91,635,0,,,,,,,,,
331,2024/05/14 19:00,2,2,0,19.60,58.46,16.90,0,655,0,,,,,,,,,
332,2024/05/14 20:00,1,0,1,17.96,64.25,15.35,0,678,0,,,,,,,,,
333,2024/05/14 21:00,2,2,0,17.03,68.08,14.52,0,694,0,,,,,,,,,
334,2024/05/14 22:00,1,1,0,16.43,71.01,14.01,0,706,0,,,,,,,,,
335,2024/05/14 23:00,1,1,0,16.05,73.08,13.69,0,712,0,,,,,,,,,
336,2024/05/15 00:00,2,1,1,15.60,74.62,13.32,0,716,0,,,,,,,,,
337,2024/05/15 01:00,2,2,0,15.09,75.97,12.91,0,719,0,,,,,,,,,
338,2024/05/15 02:00,2,2,0,14.66,77.22,12.58,0,719,0,,,,,,,,,
339,2024/05/15 03:00,,,,14.22,78.41,12.25,0,722,0,,,,,,,,,
340,2024/05/15 04:00,5,5,0,13.98,79.50,12.06,8,726,0,,,,,,,,,
341,2024/05/15 05:00,,,,14.66,80.57,12.58,224,739,0,,,,,,,,,
342,2024/05/15 06:00,33,31,2,21.71,78.20,19.12,2374,725,0,,,,,,,,,
343,2024/05/15 07:00,29,28,1,28.93,57.59,28.65,3490,656,0,,,,,,,,,
344,2024/05/15 08:00,39,35,4,32.38,49.49,34.49,4411,651,0,,,,,,,,,
345,2024/05/15 09:00,51,50,1,32.15,44.60,34.08,3902,638,0,,,,,,,,,
346,2024/05/15 10:00,45,40,5,33.47,41.32,36.55,3476,634,0,,,,,,,,,
347,2024/05/15 11:00,57,56,1,34.63,39.59,38.83,3742,626,0,,,,,,,,,
348,2024/05/15 12:00,55,47,8,34.66,36.41,38.90,3533,597,0,,,,,,,,,
349,2024/05/15 13:00,38,34,4,30.99,40.02,32.03,3236,604,0,,,,,,,,,
350,2024/05/15 14:00,15,12,3,32.03,40.37,33.86,6065,600,0,,,,,,,,,
351,2024/05/15 15:00,15,14,1,33.42,38.11,36.44,9019,596,0,,,,,,,,,
352,2024/05/15 16:00,14,12,2,27.49,45.21,26.49,1641,611,0,,,,,,,,,
353,2024/05/15 17:00,3,2,1,24.18,55.84,22.01,506,620,0,,,,,,,,,
354,2024/05/15 18:00,2,2,0,23.85,63.22,21.60,33,641,0,,,,,,,,,
355,2024/05/15 19:00,2,1,1,23.43,68.72,21.10,0,666,0,,,,,,,,,
356,2024/05/15 20:00,,,,22.61,72.74,20.13,0,681,0,,,,,,,,,
357,2024/05/15 21:00,1,0,1,21.89,75.01,19.31,0,688,0,,,,,,,,,
358,2024/05/15 22:00,1,1,0,21.47,76.92,18.85,0,704,0,,,,,,,,,
359,2024/05/15 23:00,3,1,2,21.22,78.19,18.58,0,713,0,,,,,,,,,
360,2024/05/16 00:00,,,,20.78,78.93,18.12,0,723,0,,,,,,,,,
361,2024/05/16 01:00,,,,19.81,79.44,17.12,0,723,0,,,,,,,,,
362,2024/05/16 02:00,,,,19.31,80.25,16.62,0,721,0,,,,,,,,,
363,2024/05/16 03:00,2,2,0,19.15,80.97,16.47,0,726,0,,,,,,,,,
364,2024/05/16 04:00,,,,18.99,81.64,16.31,2,731,0,,,,,,,,,
365,2024/05/16 05:00,,,,19.03,82.50,16.35,46,732,0,,,,,,,,,
366,2024/05/16 06:00,,,,19.05,83.92,16.37,265,730,0,,,,,,,,,
367,2024/05/16 07:00,8,8,0,20.98,84.65,18.33,682,713,0,,,,,,,,,
368,2024/05/16 08:00,8,8,0,24.77,83.07,22.76,1477,677,0,,,,,,,,,
369,2024/05/16 09:00,28,21,7,27.73,73.61,26.84,1684,642,0,,,,,,,,,
370,2024/05/16 10:00,18,13,5,27.88,69.17,27.06,1962,633,0,,,,,,,,,
371,2024/05/16 11:00,18,16,2,28.62,63.19,28.18,2380,625,0,,,,,,,,,
372,2024/05/16 12:00,36,30,6,27.37,62.83,26.31,2503,615,0,,,,,,,,,